QPF
0.00 0.00 0.00 0.00 0.00 0.00 0.00 0.00 0.00 0.00 0.00 0.00 0.00 0.00 0.00 0.00 0.00 0.00 0.00 0.00 0.00 0.00 0.00 0.00 0.00 0.00 0.00 0.00 0.00 0.01 0.02 0.02 0.07 0.03 0.06 0.00 0.00 0.01 0.04 0.00 0.00 0.00 0.01 0.00 0.00
0.00 0.00 0.00 0.00 0.00 0.00 0.00 0.00 0.00 0.00 0.00 0.00 0.00 0.00 0.00 0.00 0.00 0.00 0.00 0.00 0.00 0.00 0.00 0.00 0.00 0.00 0.00 0.00 0.00 0.02 0.04 0.05 0.01 0.01 0.00 0.00 0.00 0.00 0.00 0.00 0.00 0.00 0.00 0.00 0.00
0.00 0.00 0.00 0.00 0.00 0.00 0.00 0.00 0.00 0.00 0.00 0.00 0.00 0.00 0.00 0.00 0.00 0.00 0.00 0.00 0.00 0.00 0.00 0.00 0.00 0.00 0.00 0.00 0.00 0.00 0.00 0.01 0.01 0.00 0.00 0.02 0.11 0.03 0.02 0.01 0.00 0.00 0.00 0.00 0.00
0.00 0.00 0.00 0.00 0.00 0.00 0.00 0.00 0.00 0.00 0.00 0.00 0.00 0.00 0.00 0.00 0.00 0.00 0.00 0.00 0.00 0.00 0.00 0.00 0.00 0.00 0.00 0.00 0.00 0.00 0.00 0.02 0.02 0.00 0.00 0.01 0.04 0.02 0.01 0.06 0.01 0.00 0.00 0.00 0.00
0.00 0.00 0.00 0.00 0.00 0.00 0.00 0.00 0.00 0.00 0.00 0.00 0.00 0.00 0.00 0.00 0.00 0.00 0.00 0.00 0.00 0.00 0.00 0.00 0.00 0.00 0.00 0.00 0.00 0.00 0.01 0.01 0.00 0.02 0.04 0.01 0.00 0.09 0.02 0.02 0.00 0.00 0.00 0.00 0.00
0.00 0.00 0.00 0.00 0.00 0.00 0.00 0.00 0.00 0.00 0.00 0.00 0.00 0.00 0.00 0.00 0.00 0.00 0.00 0.00 0.00 0.00 0.00 0.00 0.00 0.00 0.00 0.00 0.00 0.00 0.00 0.03 0.00 0.00 0.00 0.00 0.01 0.00 0.00 0.00 0.00 0.00 0.00 0.00 0.00
0.00 0.00 0.00 0.00 0.00 0.00 0.00 0.00 0.00 0.00 0.00 0.00 0.00 0.00 0.00 0.00 0.00 0.00 0.00 0.00 0.00 0.00 0.00 0.00 0.00 0.00 0.00 0.00 0.00 0.00 0.00 0.00 0.00 0.00 0.00 0.00 0.00 0.00 0.01 0.00 0.00 0.00 0.00 0.00 0.00
0.00 0.00 0.00 0.00 0.00 0.00 0.00 0.00 0.00 0.00 0.00 0.00 0.00 0.00 0.00 0.00 0.00 0.00 0.00 0.00 0.00 0.00 0.00 0.00 0.00 0.00 0.00 0.00 0.00 0.00 0.00 0.00 0.00 0.00 0.00 0.00 0.00 0.00 0.00 0.00 0.00 0.00 0.00 0.00 0.00
0.00 0.00 0.00 0.00 0.00 0.00 0.00 0.00 0.00 0.00 0.00 0.00 0.00 0.00 0.00 0.00 0.00 0.00 0.00 0.00 0.00 0.00 0.00 0.00 0.00 0.00 0.00 0.00 0.00 0.00 0.00 0.00 0.01 0.00 0.00 0.00 0.11 0.07 0.00 0.00 0.00 0.00 0.00 0.00 0.00
0.00 0.00 0.00 0.00 0.00 0.00 0.00 0.00 0.00 0.00 0.00 0.00 0.00 0.00 0.00 0.00 0.00 0.00 0.00 0.00 0.00 0.00 0.00 0.00 0.00 0.00 0.00 0.00 0.00 0.00 0.00 0.00 0.00 0.00 0.00 0.00 0.06 0.22 0.00 0.00 0.00 0.00 0.00 0.00 0.00
0.00 0.00 0.00 0.00 0.00 0.00 0.00 0.00 0.00 0.00 0.00 0.00 0.00 0.00 0.00 0.00 0.00 0.00 0.00 0.00 0.00 0.00 0.00 0.00 0.00 0.00 0.00 0.00 0.00 0.00 0.00 0.00 0.00 0.01 0.01 0.01 0.02 0.16 0.00 0.00 0.00 0.00 0.00 0.00 0.00
0.00 0.00 0.00 0.00 0.00 0.00 0.00 0.00 0.00 0.00 0.00 0.00 0.00 0.00 0.00 0.00 0.00 0.00 0.00 0.00 0.00 0.00 0.00 0.00 0.00 0.00 0.00 0.00 0.00 0.00 0.00 0.00 0.00 0.00 0.00 0.02 0.01 0.00 0.00 0.00 0.00 0.00 0.00 0.00 0.00
0.00 0.00 0.00 0.00 0.00 0.00 0.00 0.00 0.00 0.00 0.00 0.00 0.00 0.00 0.00 0.00 0.00 0.00 0.00 0.00 0.00 0.00 0.00 0.00 0.00 0.00 0.00 0.00 0.00 0.00 0.00 0.00 0.00 0.00 0.00 0.02 0.02 0.01 0.01 0.00 0.00 0.00 0.00 0.00 0.00
0.00 0.00 0.00 0.00 0.00 0.00 0.00 0.00 0.00 0.00 0.00 0.00 0.00 0.00 0.00 0.00 0.00 0.00 0.00 0.00 0.00 0.00 0.00 0.00 0.00 0.00 0.00 0.00 0.00 0.00 0.00 0.00 0.00 0.00 0.00 0.00 0.00 0.00 0.04 0.01 0.00 0.00 0.00 0.00 0.00
0.00 0.00 0.00 0.00 0.00 0.00 0.00 0.00 0.00 0.00 0.00 0.00 0.00 0.00 0.00 0.00 0.00 0.00 0.00 0.00 0.00 0.00 0.00 0.00 0.00 0.00 0.00 0.00 0.00 0.00 0.00 0.00 0.00 0.00 0.00 0.00 0.00 0.00 0.00 0.00 0.00 0.00 0.00 0.00 0.00
0.00 0.00 0.00 0.00 0.00 0.00 0.00 0.00 0.00 0.00 0.00 0.00 0.00 0.00 0.00 0.00 0.00 0.00 0.00 0.00 0.00 0.00 0.00 0.00 0.00 0.00 0.00 0.00 0.00 0.00 0.00 0.00 0.00 0.00 0.00 0.00 0.00 0.00 0.00 0.00 0.00 0.00 0.00 0.00 0.00
0.00 0.00 0.00 0.00 0.00 0.00 0.00 0.00 0.00 0.00 0.00 0.00 0.00 0.00 0.00 0.00 0.00 0.00 0.00 0.00 0.00 0.00 0.00 0.00 0.00 0.00 0.00 0.00 0.00 0.00 0.00 0.00 0.00 0.00 0.00 0.00 0.00 0.00 0.00 0.00 0.00 0.00 0.00 0.00 0.00
0.00 0.00 0.00 0.00 0.00 0.00 0.00 0.00 0.00 0.00 0.00 0.00 0.00 0.00 0.00 0.00 0.00 0.00 0.00 0.00 0.00 0.00 0.00 0.00 0.00 0.00 0.00 0.00 0.00 0.00 0.00 0.00 0.00 0.00 0.00 0.00 0.00 0.00 0.00 0.00 0.00 0.01 0.00 0.00 0.00
0.00 0.00 0.00 0.00 0.00 0.00 0.00 0.00 0.00 0.00 0.00 0.00 0.00 0.00 0.00 0.00 0.00 0.00 0.00 0.00 0.00 0.00 0.00 0.00 0.00 0.00 0.00 0.00 0.00 0.00 0.00 0.00 0.00 0.00 0.00 0.00 0.00 0.00 0.00 0.00 0.00 0.00 0.00 0.00 0.00
0.00 0.00 0.00 0.00 0.00 0.00 0.00 0.00 0.00 0.00 0.00 0.00 0.00 0.00 0.00 0.00 0.00 0.00 0.00 0.00 0.00 0.00 0.00 0.00 0.00 0.00 0.00 0.00 0.00 0.00 0.00 0.00 0.00 0.00 0.00 0.00 0.00 0.00 0.00 0.00 0.00 0.00 0.00 0.00 0.02
0.00 0.00 0.00 0.00 0.00 0.00 0.00 0.00 0.00 0.00 0.00 0.00 0.00 0.00 0.00 0.00 0.00 0.00 0.00 0.00 0.00 0.00 0.00 0.00 0.00 0.00 0.00 0.00 0.00 0.00 0.00 0.00 0.00 0.00 0.00 0.00 0.00 0.00 0.00 0.00 0.00 0.00 0.00 0.00 0.00
0.00 0.00 0.00 0.00 0.00 0.00 0.00 0.00 0.00 0.00 0.00 0.00 0.00 0.00 0.00 0.00 0.00 0.00 0.00 0.00 0.00 0.00 0.00 0.00 0.00 0.00 0.00 0.00 0.00 0.00 0.00 0.00 0.00 0.00 0.00 0.00 0.00 0.00 0.00 0.00 0.00 0.00 0.00 0.00 0.00
0.00 0.00 0.00 0.00 0.00 0.00 0.00 0.00 0.00 0.00 0.00 0.00 0.00 0.00 0.00 0.00 0.00 0.00 0.00 0.00 0.00 0.00 0.00 0.00 0.00 0.00 0.00 0.00 0.00 0.00 0.00 0.00 0.00 0.00 0.00 0.00 0.00 0.00 0.00 0.00 0.00 0.00 0.00 0.00 0.00
0.00 0.00 0.00 0.00 0.00 0.00 0.00 0.00 0.00 0.00 0.00 0.00 0.00 0.00 0.00 0.00 0.00 0.00 0.00 0.00 0.00 0.00 0.00 0.00 0.00 0.00 0.00 0.00 0.00 0.00 0.00 0.00 0.00 0.00 0.00 0.00 0.00 0.00 0.00 0.00 0.00 0.00 0.00 0.00 0.00
0.00 0.00 0.00 0.00 0.00 0.00 0.00 0.00 0.00 0.00 0.00 0.00 0.00 0.00 0.00 0.00 0.00 0.00 0.00 0.00 0.00 0.00 0.00 0.00 0.00 0.00 0.00 0.00 0.00 0.00 0.00 0.00 0.00 0.00 0.00 0.00 0.00 0.00 0.00 0.00 0.00 0.00 0.00 0.00 0.00
0.00 0.00 0.00 0.00 0.00 0.00 0.00 0.00 0.00 0.00 0.00 0.00 0.00 0.00 0.00 0.01 0.02 0.03 0.03 0.02 0.00 0.00 0.00 0.00 0.00 0.00 0.00 0.00 0.00 0.00 0.00 0.00 0.00 0.00 0.00 0.00 0.00 0.00 0.00 0.00 0.00 0.00 0.00 0.00 0.00
0.00 0.00 0.00 0.00 0.00 0.00 0.00 0.00 0.00 0.01 0.00 0.00 0.00 0.01 0.00 0.00 0.00 0.00 0.01 0.02 0.02 0.01 0.04 0.02 0.03 0.02 0.00 0.00 0.00 0.00 0.00 0.00 0.00 0.00 0.00 0.00 0.00 0.00 0.00 0.00 0.00 0.00 0.00 0.00 0.00
MSLP
1018.45 1017.90 1017.46 1017.09 1016.58 1016.11 1015.62 1015.15 1014.72 1014.37 1014.12 1013.91 1013.56 1013.40 1013.26 1013.22 1013.09 1012.49 1010.01 1008.87 1008.74 1008.90 1009.28 1008.38 1007.94 1007.32 1006.77 1007.07 1006.98 1007.07 1006.38 1004.92 1005.47 1004.98 1004.56 1005.86 1006.34 1007.02 1006.97 1006.68 1006.58 1006.59 1007.00 1008.86 1010.16
1018.59 1017.98 1017.42 1017.02 1016.49 1015.96 1015.48 1014.95 1014.47 1014.06 1013.76 1013.55 1013.37 1013.12 1013.06 1013.06 1011.86 1009.71 1008.83 1009.04 1009.17 1009.10 1008.41 1007.16 1006.72 1006.71 1006.26 1005.82 1006.15 1006.34 1004.60 1005.25 1003.74 1004.53 1004.22 1004.70 1005.52 1005.99 1006.49 1005.99 1005.75 1006.52 1007.39 1009.21 1009.84
1018.64 1018.02 1017.40 1016.82 1016.28 1015.75 1015.22 1014.74 1014.27 1013.76 1013.44 1013.24 1013.06 1012.97 1012.94 1012.71 1010.18 1007.52 1008.57 1009.05 1009.16 1009.00 1007.39 1006.51 1006.29 1006.19 1005.39 1004.87 1004.87 1004.44 1003.69 1003.20 1003.87 1004.19 1004.72 1004.62 1005.32 1004.80 1004.64 1004.74 1005.18 1006.25 1008.14 1009.51 1009.55
1018.66 1018.02 1017.36 1016.73 1016.10 1015.51 1014.91 1014.41 1014.05 1013.53 1013.10 1012.86 1012.72 1012.74 1012.82 1011.85 1007.70 1007.20 1008.33 1008.61 1008.94 1008.57 1007.48 1006.09 1005.70 1005.40 1004.51 1003.85 1003.56 1003.45 1003.02 1003.53 1004.31 1003.80 1004.45 1004.39 1004.37 1003.58 1003.99 1005.09 1004.78 1006.35 1008.54 1009.46 1009.39
1018.59 1017.89 1017.24 1016.63 1015.96 1015.28 1014.60 1014.08 1013.66 1013.17 1012.76 1012.50 1012.38 1012.53 1012.48 1009.47 1006.55 1006.81 1007.59 1007.90 1008.44 1008.37 1006.80 1005.76 1005.19 1004.80 1003.80 1003.08 1002.83 1002.81 1002.70 1003.16 1003.42 1003.40 1003.68 1003.80 1003.48 1003.90 1003.60 1003.59 1004.86 1006.65 1008.58 1009.12 1009.49
1018.49 1017.80 1017.12 1016.42 1015.73 1015.04 1014.30 1013.66 1013.16 1012.75 1012.38 1012.03 1012.11 1012.38 1010.94 1007.16 1006.70 1006.74 1006.70 1007.09 1007.13 1007.25 1006.14 1005.50 1004.91 1004.54 1003.53 1002.82 1002.55 1001.99 1002.45 1003.28 1003.63 1002.74 1002.60 1002.78 1002.61 1002.47 1002.48 1003.70 1005.26 1006.67 1008.10 1008.66 1009.11
1018.36 1017.65 1016.98 1016.33 1015.51 1014.78 1014.14 1013.51 1012.74 1012.44 1012.10 1012.00 1012.05 1011.67 1008.40 1006.83 1006.75 1006.58 1006.47 1006.53 1006.66 1006.23 1005.30 1005.12 1004.70 1004.42 1004.06 1002.96 1002.74 1002.29 1002.18 1002.10 1002.72 1002.82 1002.10 1001.80 1001.85 1001.47 1002.41 1003.42 1005.06 1006.27 1007.42 1008.12 1008.70
1018.26 1017.54 1016.84 1016.10 1015.33 1014.61 1013.86 1013.39 1012.68 1012.29 1012.04 1011.94 1011.91 1010.39 1007.10 1006.93 1006.57 1006.29 1006.07 1006.01 1006.24 1005.90 1005.17 1005.11 1004.93 1004.78 1003.78 1002.90 1002.90 1002.14 1001.80 1000.73 1000.84 1002.03 1001.85 1002.07 1000.87 1000.91 1002.30 1003.04 1004.35 1005.70 1006.81 1007.62 1008.35
1018.05 1017.30 1016.59 1015.88 1015.03 1014.28 1013.51 1013.08 1012.47 1012.16 1011.90 1011.67 1010.89 1008.58 1006.03 1007.10 1006.28 1006.20 1006.02 1005.76 1005.79 1005.81 1005.62 1005.32 1005.32 1004.96 1003.97 1003.36 1002.15 1001.20 1000.13 1000.09 999.89 1001.34 1001.22 1001.85 1002.15 1002.52 1002.05 1002.74 1003.55 1004.92 1006.19 1007.14 1007.98
1017.93 1017.00 1016.15 1015.40 1014.55 1013.85 1013.08 1012.79 1012.25 1012.06 1011.51 1010.24 1008.94 1007.49 1006.05 1006.08 1006.01 1006.13 1006.00 1005.62 1005.65 1005.76 1005.75 1005.64 1005.48 1004.23 1003.26 1002.31 1000.29 999.57 999.58 998.60 998.86 1000.00 1000.48 1000.92 1002.48 1003.04 1001.82 1002.00 1002.83 1004.16 1005.51 1006.55 1007.38
1017.90 1016.99 1016.09 1015.18 1014.23 1013.16 1012.52 1011.57 1011.46 1010.41 1008.40 1007.62 1006.57 1006.02 1006.05 1006.15 1005.73 1005.58 1005.52 1005.54 1005.62 1005.47 1004.85 1005.16 1004.35 1002.57 1001.78 1001.67 1000.68 999.08 998.43 998.41 997.79 998.97 999.91 1000.38 1001.52 1001.54 1001.23 1001.55 1002.16 1003.49 1004.86 1005.92 1006.73
1017.78 1016.83 1015.96 1015.17 1014.32 1012.90 1012.54 1009.94 1010.54 1010.35 1008.04 1007.40 1006.96 1006.27 1006.36 1006.09 1005.22 1005.61 1005.72 1005.18 1005.16 1004.52 1004.29 1003.80 1002.70 1002.28 1001.94 1001.27 1000.93 1000.10 999.39 998.22 997.94 998.35 999.76 1000.32 1000.29 999.82 1000.31 1000.48 1001.38 1002.74 1004.10 1005.30 1006.30
1017.76 1016.83 1015.93 1015.15 1014.39 1012.82 1010.93 1010.76 1010.38 1009.99 1008.08 1006.52 1006.34 1005.87 1005.96 1005.94 1005.28 1005.50 1005.44 1004.88 1004.28 1003.89 1003.16 1002.18 1001.61 1002.06 1001.67 1001.39 1000.98 1000.48 999.87 999.07 998.34 998.50 999.01 999.38 999.71 999.12 999.64 999.46 1000.71 1002.11 1003.40 1004.47 1005.33
1017.71 1016.82 1015.92 1015.28 1014.25 1010.81 1009.94 1010.31 1009.94 1009.88 1007.20 1005.75 1006.09 1005.86 1005.87 1005.62 1005.50 1006.22 1006.03 1005.32 1004.05 1003.18 1002.57 1002.02 1001.71 1001.72 1001.55 1001.12 1001.14 1000.30 1000.37 1000.10 999.43 998.70 998.25 999.11 998.84 998.75 999.76 998.44 999.74 1001.28 1002.44 1003.36 1004.42
1017.35 1016.54 1015.62 1015.78 1013.01 1009.92 1010.46 1009.95 1009.77 1009.47 1006.08 1005.59 1005.70 1006.48 1005.96 1005.53 1005.59 1005.80 1006.33 1005.62 1004.28 1003.26 1002.59 1001.46 1001.53 1001.30 1001.16 1001.00 1001.42 1000.80 1000.53 1000.18 1000.32 999.70 999.09 998.35 998.08 996.83 997.52 998.60 998.53 1000.01 1001.29 1002.17 1003.28
1016.93 1016.20 1015.39 1013.27 1012.18 1010.45 1010.16 1009.83 1009.62 1007.90 1004.70 1005.67 1005.85 1005.97 1005.70 1005.70 1005.72 1005.77 1005.78 1005.96 1005.22 1004.31 1003.20 1002.20 1001.26 1001.27 1001.01 1001.30 1001.53 1001.63 1001.29 1000.94 1000.44 1000.05 998.90 998.15 997.37 996.27 996.71 997.12 997.64 998.63 999.70 1000.96 1001.98
1016.42 1015.62 1015.10 1012.45 1010.31 1010.47 1010.07 1009.15 1007.65 1005.36 1004.84 1005.53 1005.28 1005.84 1005.46 1005.49 1005.92 1005.82 1005.46 1005.02 1004.65 1004.10 1003.07 1002.31 1001.83 1001.55 1001.52 1000.95 1001.22 1001.57 1001.06 1000.43 1000.06 999.16 997.39 997.47 996.68 995.16 995.04 996.54 997.02 996.90 998.09 999.34 1000.63
1015.73 1015.14 1013.14 1011.67 1010.91 1010.54 1009.70 1008.22 1006.20 1004.68 1004.59 1006.30 1006.36 1006.47 1005.85 1006.11 1005.91 1006.13 1005.79 1005.22 1005.48 1005.18 1003.58 1001.94 1000.66 1000.99 1001.36 1001.12 1000.36 1000.66 1000.61 999.31 998.08 997.00 996.29 996.72 994.75 994.76 994.84 995.47 996.32 997.96 996.55 997.68 999.12
1015.01 1012.83 1010.90 1010.88 1010.89 1010.58 1009.19 1006.92 1005.41 1005.30 1006.35 1006.64 1006.51 1006.22 1005.68 1006.56 1007.01 1006.42 1005.79 1005.61 1005.34 1006.27 1005.26 1002.75 1001.58 1000.99 1001.04 1000.93 1001.16 999.96 999.84 999.74 998.46 996.82 995.25 994.40 994.65 994.88 994.72 994.88 995.93 997.42 995.20 996.76 997.22
1014.72 1011.45 1010.62 1010.70 1010.76 1010.20 1008.79 1006.86 1006.84 1007.80 1008.16 1007.92 1006.92 1006.40 1005.89 1005.97 1007.22 1006.74 1006.08 1006.54 1007.10 1008.13 1007.62 1005.47 1003.89 1001.87 1001.44 1002.10 1001.36 1000.60 999.73 999.65 998.90 997.38 995.19 993.99 992.82 992.66 993.76 994.14 994.60 995.16 995.30 995.91 997.34
1014.54 1010.62 1010.64 1010.54 1010.34 1009.23 1007.55 1007.83 1008.68 1009.34 1009.77 1008.90 1008.13 1007.75 1007.76 1007.46 1007.75 1007.62 1007.26 1007.70 1008.41 1008.48 1008.79 1007.29 1006.02 1003.82 1002.75 1002.18 1001.55 1001.24 1000.24 999.54 998.71 997.96 996.26 994.64 992.40 992.27 992.50 993.71 994.24 994.51 995.28 995.13 995.52
1012.57 1009.82 1010.89 1010.38 1009.20 1008.43 1008.07 1010.07 1011.73 1010.12 1010.49 1010.26 1010.18 1009.80 1009.36 1009.00 1008.80 1008.67 1008.60 1008.41 1009.49 1009.83 1009.23 1008.47 1007.22 1005.10 1003.07 1002.58 1002.45 1001.54 1000.34 1000.28 998.95 997.93 996.72 995.63 993.39 992.48 992.36 992.83 993.96 994.28 994.70 995.27 995.52
1012.46 1011.09 1011.09 1009.76 1008.67 1008.71 1010.75 1011.04 1011.62 1011.32 1011.24 1011.24 1010.88 1010.86 1010.85 1010.52 1010.24 1009.99 1009.80 1009.85 1010.88 1011.07 1010.31 1009.81 1008.74 1006.79 1005.11 1004.13 1003.48 1002.18 1001.10 1000.88 999.94 998.95 996.79 995.79 994.84 993.47 993.30 993.49 993.82 994.26 994.74 995.10 995.25
1013.12 1010.68 1010.88 1011.34 1011.63 1011.19 1011.34 1012.02 1012.01 1012.93 1012.56 1012.90 1012.45 1012.18 1011.94 1011.49 1011.26 1010.96 1011.09 1010.85 1011.66 1011.87 1012.24 1012.14 1010.13 1007.96 1005.49 1005.08 1004.58 1002.88 1002.74 1001.87 1000.88 999.45 998.40 996.50 995.57 994.35 994.56 994.84 995.02 994.64 994.58 994.67 994.85
1014.09 1013.40 1013.54 1012.30 1012.80 1012.94 1013.16 1013.75 1013.88 1013.87 1014.10 1013.80 1013.46 1013.68 1013.79 1013.08 1012.52 1012.32 1012.03 1011.79 1012.28 1012.46 1012.92 1012.54 1010.72 1009.32 1008.06 1007.12 1006.48 1005.42 1004.04 1002.92 1002.32 1001.58 1000.58 998.46 997.15 995.92 995.12 995.27 995.29 995.26 995.38 995.27 995.21
1014.55 1014.52 1014.06 1014.03 1014.62 1014.19 1015.11 1015.46 1015.72 1016.13 1016.06 1014.88 1014.90 1015.08 1014.96 1014.53 1014.02 1013.72 1013.80 1013.60 1012.67 1012.60 1012.47 1012.23 1011.41 1010.66 1009.31 1008.38 1007.55 1006.55 1005.69 1005.09 1004.36 1003.47 1002.68 1001.23 999.15 997.76 997.40 996.73 996.12 995.98 996.20 996.26 996.67
1016.43 1016.40 1015.02 1016.02 1015.69 1016.14 1017.08 1017.52 1017.49 1017.67 1017.30 1017.21 1017.21 1016.55 1015.96 1015.87 1015.37 1014.60 1013.97 1013.98 1014.39 1013.53 1013.18 1013.00 1012.74 1012.12 1009.85 1008.99 1007.92 1006.48 1005.70 1005.28 1004.66 1003.96 1003.12 1001.80 1000.71 999.85 999.06 999.00 998.50 997.40 997.25 997.56 998.23
Thickness
5713 5717 5720 5723 5727 5730 5734 5738 5742 5745 5748 5750 5753 5755 5756 5757 5760 5767 5782 5796 5798 5800 5797 5803 5805 5808 5812 5799 5806 5806 5782 5788 5778 5791 5803 5808 5794 5802 5810 5805 5812 5820 5816 5808 5805
5708 5712 5717 5719 5724 5728 5732 5737 5741 5745 5747 5750 5752 5755 5756 5757 5768 5781 5794 5793 5794 5797 5800 5801 5798 5803 5798 5803 5803 5789 5799 5775 5821 5812 5814 5819 5809 5803 5800 5808 5814 5814 5819 5808 5806
5704 5708 5713 5717 5721 5725 5730 5734 5738 5743 5746 5748 5751 5753 5754 5756 5775 5794 5793 5791 5792 5794 5808 5812 5809 5802 5796 5809 5807 5809 5802 5822 5817 5819 5814 5811 5797 5819 5816 5811 5819 5810 5802 5799 5804
5700 5704 5709 5713 5718 5723 5728 5732 5736 5741 5744 5747 5749 5750 5751 5761 5778 5798 5792 5791 5791 5794 5801 5805 5803 5792 5795 5796 5818 5802 5822 5817 5810 5823 5813 5809 5821 5824 5827 5808 5835 5823 5806 5800 5801
5697 5701 5706 5710 5715 5721 5726 5731 5735 5739 5743 5746 5747 5747 5751 5769 5788 5800 5795 5794 5791 5791 5795 5798 5795 5795 5792 5808 5817 5809 5818 5822 5824 5824 5821 5822 5820 5788 5822 5837 5837 5823 5806 5801 5801
5694 5698 5702 5707 5713 5718 5725 5730 5735 5739 5742 5745 5745 5744 5756 5770 5793 5796 5798 5797 5795 5792 5797 5801 5798 5805 5804 5809 5809 5826 5822 5813 5814 5828 5833 5821 5826 5834 5838 5839 5824 5816 5805 5806 5804
5689 5694 5698 5702 5709 5715 5721 5727 5733 5737 5739 5740 5741 5745 5767 5772 5789 5792 5795 5793 5796 5797 5795 5805 5810 5801 5803 5802 5821 5822 5807 5820 5815 5820 5826 5839 5821 5830 5838 5837 5818 5813 5809 5809 5808
5682 5687 5692 5698 5704 5711 5717 5722 5728 5731 5734 5736 5736 5750 5763 5781 5785 5788 5793 5790 5795 5800 5802 5807 5809 5798 5801 5816 5807 5805 5811 5802 5828 5820 5829 5827 5811 5841 5842 5832 5818 5814 5810 5810 5809
5675 5681 5686 5692 5699 5706 5713 5718 5722 5725 5728 5731 5739 5753 5758 5774 5772 5781 5787 5779 5786 5790 5794 5801 5796 5783 5793 5781 5787 5803 5795 5803 5815 5824 5827 5819 5797 5814 5842 5831 5821 5816 5812 5809 5808
5666 5673 5680 5687 5694 5700 5708 5711 5715 5718 5724 5735 5745 5743 5759 5753 5768 5772 5781 5782 5774 5774 5771 5773 5772 5773 5783 5782 5778 5796 5798 5821 5815 5825 5828 5821 5806 5774 5835 5835 5825 5819 5815 5811 5810
5657 5663 5670 5678 5687 5697 5705 5714 5716 5720 5736 5734 5745 5745 5747 5758 5769 5764 5773 5768 5767 5763 5752 5762 5755 5766 5784 5790 5801 5814 5819 5813 5840 5835 5822 5819 5811 5764 5835 5836 5827 5820 5816 5814 5813
5648 5655 5662 5669 5677 5689 5693 5710 5703 5706 5713 5729 5732 5739 5743 5749 5742 5748 5763 5750 5748 5744 5758 5758 5755 5780 5789 5794 5790 5794 5795 5810 5834 5838 5820 5810 5815 5840 5840 5838 5833 5825 5820 5815 5813
5637 5644 5652 5659 5667 5681 5695 5691 5699 5702 5700 5717 5724 5727 5730 5736 5731 5734 5747 5747 5743 5741 5752 5756 5772 5779 5779 5778 5775 5782 5786 5799 5809 5825 5829 5820 5803 5828 5834 5848 5840 5834 5830 5825 5821
5627 5633 5641 5648 5658 5687 5688 5690 5694 5694 5691 5701 5703 5715 5721 5725 5716 5730 5736 5734 5740 5738 5749 5753 5772 5765 5765 5767 5775 5768 5794 5794 5797 5802 5790 5821 5778 5812 5791 5830 5838 5832 5830 5830 5828
5618 5625 5633 5634 5658 5675 5674 5682 5686 5682 5674 5694 5698 5712 5712 5706 5712 5711 5724 5723 5719 5730 5741 5744 5749 5754 5752 5763 5771 5767 5791 5789 5783 5783 5789 5801 5796 5830 5841 5813 5836 5837 5835 5838 5837
5610 5616 5624 5641 5651 5665 5669 5674 5671 5661 5667 5675 5687 5685 5687 5694 5696 5705 5705 5713 5719 5714 5727 5735 5761 5755 5758 5763 5767 5773 5768 5770 5777 5774 5752 5790 5799 5813 5815 5833 5838 5847 5846 5844 5843
5604 5611 5617 5635 5649 5654 5659 5660 5653 5661 5684 5662 5673 5677 5680 5677 5677 5684 5686 5692 5692 5688 5699 5719 5725 5742 5750 5745 5758 5755 5750 5731 5729 5737 5753 5802 5794 5823 5853 5845 5846 5855 5855 5853 5851
5600 5606 5622 5631 5639 5644 5648 5647 5637 5671 5668 5661 5659 5659 5660 5664 5668 5669 5672 5674 5683 5682 5692 5698 5709 5726 5737 5736 5743 5744 5748 5739 5722 5750 5773 5799 5783 5809 5857 5860 5850 5832 5859 5865 5856
5600 5616 5629 5631 5632 5636 5635 5639 5654 5656 5653 5647 5652 5647 5657 5653 5649 5658 5665 5667 5674 5672 5665 5690 5697 5730 5728 5735 5735 5742 5729 5769 5759 5789 5789 5807 5810 5828 5847 5850 5841 5835 5870 5853 5863
5598 5620 5622 5626 5627 5628 5629 5634 5643 5640 5636 5638 5634 5648 5646 5650 5636 5645 5654 5656 5648 5648 5658 5669 5662 5712 5717 5713 5726 5728 5761 5729 5741 5721 5737 5790 5808 5806 5818 5830 5845 5846 5854 5859 5844
5597 5619 5622 5626 5629 5628 5632 5631 5628 5627 5621 5623 5626 5627 5626 5629 5624 5626 5632 5634 5634 5637 5638 5651 5652 5676 5695 5687 5698 5707 5715 5727 5747 5749 5736 5752 5796 5845 5836 5829 5833 5846 5851 5866 5861
5613 5619 5621 5626 5620 5631 5632 5613 5588 5615 5612 5607 5607 5605 5605 5609 5606 5605 5608 5615 5616 5616 5616 5632 5638 5646 5675 5697 5701 5707 5714 5717 5715 5723 5752 5762 5787 5852 5849 5843 5835 5842 5849 5857 5865
5611 5614 5620 5629 5619 5624 5607 5604 5600 5600 5598 5594 5592 5593 5591 5585 5578 5584 5589 5598 5588 5589 5597 5608 5612 5617 5638 5662 5675 5680 5701 5703 5720 5740 5741 5743 5760 5835 5831 5830 5834 5833 5840 5849 5859
5610 5616 5616 5611 5606 5605 5600 5593 5592 5586 5584 5576 5575 5577 5573 5571 5575 5567 5564 5574 5569 5570 5562 5571 5587 5602 5627 5639 5638 5657 5667 5687 5702 5702 5721 5742 5770 5802 5802 5800 5808 5825 5837 5847 5856
5606 5596 5593 5595 5592 5592 5589 5578 5569 5565 5565 5566 5561 5554 5546 5545 5547 5545 5551 5554 5550 5550 5547 5554 5563 5586 5599 5611 5614 5622 5638 5659 5662 5680 5678 5726 5746 5774 5802 5800 5807 5817 5822 5829 5838
5601 5591 5596 5590 5580 5582 5569 5560 5552 5545 5545 5554 5548 5543 5539 5532 5534 5527 5523 5525 5534 5540 5542 5549 5547 5561 5569 5588 5596 5600 5617 5625 5641 5656 5662 5683 5707 5757 5763 5788 5795 5801 5804 5806 5814
5588 5583 5590 5557 5570 5561 5550 5541 5539 5535 5538 5533 5526 5527 5525 5521 5523 5525 5529 5525 5516 5523 5526 5529 5530 5533 5554 5578 5587 5587 5611 5621 5638 5653 5663 5665 5701 5725 5737 5746 5762 5780 5790 5788 5796